BOX588 VHHH-RKSI

Flight info

Callsign BOX588
Flight time N/A
Altitude 33000
Route BEKOL A461 IDUMA W41 ISLOM G471 PLT A599 TUPGA W135 ADBAS V77 LURMA A599 PUD W11 PINOT W115 MATNU G455 SURAK A326 OMLIB W209 AGAVO Y644 GONAV
Aircraft B77L/H-VGDW/C

Departure

Time N/A
Airport Hong Kong International Airport (VHHH)

Arrival

Time 2026-05-06 20:21
Airport Incheon International Airport (RKSI)
Time Latitude Longitude Altitude Speed Heading
2026-05-06 19:05 31.06485 121.11507 32914 ft 549 kts 73°
2026-05-06 19:05 31.08848 121.20928 32913 ft 549 kts 72°
2026-05-06 19:06 31.11106 121.29438 32912 ft 549 kts 72°
2026-05-06 19:06 31.12914 121.38155 32904 ft 548 kts 82°
2026-05-06 19:07 31.13780 121.46927 32905 ft 548 kts 84°
2026-05-06 19:07 31.14700 121.55742 32915 ft 547 kts 83°
2026-05-06 19:08 31.15673 121.64557 32938 ft 547 kts 83°
2026-05-06 19:08 31.16694 121.73366 32910 ft 548 kts 79°
2026-05-06 19:09 31.18754 121.81914 32916 ft 547 kts 69°
2026-05-06 19:09 31.21944 121.89959 32927 ft 546 kts 62°
2026-05-06 19:10 31.25360 121.97883 32929 ft 547 kts 62°
2026-05-06 19:10 31.28727 122.05861 32940 ft 547 kts 63°
2026-05-06 19:11 31.32060 122.13853 32952 ft 547 kts 63°
2026-05-06 19:11 31.35393 122.21859 32953 ft 548 kts 63°
2026-05-06 19:12 31.38724 122.29864 32955 ft 548 kts 63°
2026-05-06 19:12 31.42054 122.37874 32964 ft 547 kts 62°
2026-05-06 19:13 31.46251 122.45237 32968 ft 543 kts 46°
2026-05-06 19:13 31.51801 122.51171 32965 ft 538 kts 32°
2026-05-06 19:14 31.57864 122.56193 32970 ft 538 kts 33°
2026-05-06 19:14 31.63605 122.61871 32964 ft 540 kts 50°
2026-05-06 19:14 31.65640 122.65587 32979 ft 543 kts 63°
2026-05-06 19:15 31.66997 122.69730 32966 ft 545 kts 76°
2026-05-06 19:15 31.67971 122.78473 32975 ft 545 kts 84°
2026-05-06 19:16 31.69075 122.87285 32975 ft 547 kts 81°
2026-05-06 19:16 31.70332 122.96094 32978 ft 548 kts 81°
2026-05-06 19:17 31.71543 123.04930 32976 ft 549 kts 81°
2026-05-06 19:17 31.72715 123.13798 32978 ft 549 kts 81°
2026-05-06 19:18 31.73879 123.22671 32982 ft 550 kts 81°
2026-05-06 19:18 31.75047 123.31574 32985 ft 551 kts 81°
2026-05-06 19:19 31.77139 123.40096 32986 ft 544 kts 57°
2026-05-06 19:19 31.79479 123.43538 33005 ft 539 kts 40°
2026-05-06 19:19 31.82475 123.46145 32998 ft 534 kts 26°
2026-05-06 19:20 31.89315 123.49241 32980 ft 523 kts
2026-05-06 19:20 31.92898 123.49481 33000 ft 511 kts 354°
2026-05-06 19:20 31.96459 123.49371 32992 ft 512 kts 353°
2026-05-06 19:21 32.03606 123.49166 32997 ft 515 kts 354°
2026-05-06 19:21 32.10786 123.49066 32989 ft 517 kts 355°
2026-05-06 19:22 32.17974 123.49035 32988 ft 517 kts 355°
2026-05-06 19:22 32.25152 123.49020 32985 ft 515 kts 355°
2026-05-06 19:23 32.32276 123.49000 32980 ft 514 kts 355°
2026-05-06 19:23 32.39420 123.48975 32985 ft 513 kts 355°
2026-05-06 19:24 32.46553 123.48948 32989 ft 512 kts 355°
2026-05-06 19:24 32.53681 123.48920 32996 ft 512 kts 355°
2026-05-06 19:25 32.60818 123.48894 32984 ft 512 kts 355°
2026-05-06 19:25 32.67947 123.48867 32996 ft 513 kts 355°
2026-05-06 19:26 32.75081 123.48841 32984 ft 513 kts 355°
2026-05-06 19:26 32.82218 123.48814 32990 ft 513 kts 355°
2026-05-06 19:27 32.89372 123.48788 32993 ft 513 kts 355°
2026-05-06 19:27 32.96512 123.48762 32988 ft 513 kts 355°
2026-05-06 19:28 33.02443 123.48740 32990 ft 512 kts 355°
2026-05-06 19:28 33.09569 123.48713 32994 ft 512 kts 355°
2026-05-06 19:29 33.16692 123.48687 32988 ft 511 kts 355°
2026-05-06 19:29 33.23799 123.48660 32991 ft 511 kts 355°
2026-05-06 19:30 33.30908 123.48634 32985 ft 510 kts 355°
2026-05-06 19:30 33.37999 123.48607 32991 ft 510 kts 355°
2026-05-06 19:31 33.45093 123.48580 32984 ft 510 kts 355°
2026-05-06 19:31 33.55731 123.48540 32986 ft 510 kts 355°
2026-05-06 19:32 33.62827 123.48513 32986 ft 510 kts 355°
2026-05-06 19:32 33.69935 123.48485 32987 ft 511 kts 355°
2026-05-06 19:33 33.77051 123.48458 32981 ft 512 kts 355°
2026-05-06 19:33 33.84187 123.48431 32979 ft 513 kts 355°
2026-05-06 19:34 33.91294 123.48403 32978 ft 515 kts 355°
2026-05-06 19:34 33.98469 123.48375 32981 ft 517 kts 355°
2026-05-06 19:35 34.05673 123.48347 32977 ft 519 kts 355°
2026-05-06 19:35 34.12870 123.48102 32970 ft 517 kts 351°
2026-05-06 19:36 34.20050 123.47460 32977 ft 518 kts 350°
2026-05-06 19:36 34.27251 123.46796 32974 ft 520 kts 351°
2026-05-06 19:37 34.34472 123.46163 32969 ft 521 kts 351°
2026-05-06 19:37 34.41718 123.45542 32968 ft 521 kts 351°
2026-05-06 19:38 34.48954 123.44922 32960 ft 521 kts 351°
2026-05-06 19:38 34.56184 123.44299 32958 ft 521 kts 351°
2026-05-06 19:39 34.63403 123.43674 32958 ft 520 kts 350°
2026-05-06 19:39 34.70616 123.43049 32954 ft 518 kts 350°
2026-05-06 19:40 34.77798 123.42425 32948 ft 517 kts 350°
2026-05-06 19:40 34.84961 123.41805 32945 ft 516 kts 350°
2026-05-06 19:41 34.92110 123.41200 32946 ft 515 kts 350°
2026-05-06 19:41 34.99213 123.40597 32945 ft 514 kts 350°
2026-05-06 19:42 35.06378 123.40250 32949 ft 517 kts 353°
2026-05-06 19:42 35.13569 123.40164 32943 ft 516 kts 353°
2026-05-06 19:43 35.20749 123.39965 32940 ft 516 kts 352°
2026-05-06 19:43 35.27943 123.39760 32938 ft 517 kts 352°
2026-05-06 19:44 35.35130 123.39558 32932 ft 517 kts 352°
2026-05-06 19:44 35.42323 123.39360 32929 ft 517 kts 352°
2026-05-06 19:45 35.49520 123.39161 32934 ft 518 kts 352°
2026-05-06 19:45 35.56730 123.38961 32931 ft 518 kts 352°
2026-05-06 19:46 35.63927 123.38760 32918 ft 517 kts 352°
2026-05-06 19:46 35.71132 123.38559 32923 ft 517 kts 352°
2026-05-06 19:47 35.78310 123.38358 32922 ft 517 kts 352°
2026-05-06 19:47 35.85490 123.38158 32918 ft 516 kts 352°
2026-05-06 19:48 35.92662 123.37956 32916 ft 515 kts 352°
2026-05-06 19:48 35.99791 123.37756 32909 ft 515 kts 352°
2026-05-06 19:49 36.06948 123.37554 32910 ft 514 kts 352°
2026-05-06 19:49 36.14102 123.37351 32901 ft 514 kts 352°
2026-05-06 19:50 36.21254 123.37149 32905 ft 514 kts 351°
2026-05-06 19:50 36.28420 123.36945 32906 ft 514 kts 351°
2026-05-06 19:51 36.35574 123.36756 32899 ft 514 kts 353°
2026-05-06 19:51 36.39168 123.37145 32885 ft 527 kts
2026-05-06 19:51 36.42733 123.38416 32900 ft 539 kts 15°
2026-05-06 19:52 36.46135 123.40473 32899 ft 550 kts 26°
2026-05-06 19:52 36.49296 123.43172 32905 ft 554 kts 30°
2026-05-06 19:52 36.55594 123.48731 32899 ft 555 kts 29°
2026-05-06 19:53 36.61968 123.54141 32890 ft 555 kts 28°
2026-05-06 19:53 36.68370 123.59525 32901 ft 556 kts 28°
2026-05-06 19:54 36.74791 123.64894 32910 ft 556 kts 28°
2026-05-06 19:54 36.81245 123.70259 32904 ft 557 kts 28°
2026-05-06 19:55 36.87681 123.75630 32907 ft 557 kts 28°
2026-05-06 19:55 36.94117 123.81021 32911 ft 557 kts 28°
2026-05-06 19:56 37.00510 123.86389 32911 ft 557 kts 28°
2026-05-06 19:56 37.06944 123.91800 32919 ft 557 kts 28°
2026-05-06 19:57 37.13161 123.97592 32903 ft 565 kts 43°
2026-05-06 19:57 37.15447 124.01636 32932 ft 575 kts 60°
2026-05-06 19:57 37.16883 124.06291 32897 ft 571 kts 76°
2026-05-06 19:58 37.17372 124.11156 32704 ft 552 kts 91°
2026-05-06 19:58 37.17342 124.15947 32006 ft 549 kts 92°
2026-05-06 19:58 37.17397 124.20751 31109 ft 553 kts 89°
2026-05-06 19:58 37.17576 124.25564 30375 ft 553 kts 87°
2026-05-06 19:59 37.17759 124.30367 29785 ft 549 kts 88°
2026-05-06 19:59 37.17882 124.35121 29275 ft 541 kts 89°
2026-05-06 19:59 37.18152 124.39789 28776 ft 534 kts 83°
2026-05-06 19:59 37.18752 124.44364 28246 ft 529 kts 77°
2026-05-06 20:00 37.19695 124.48794 27661 ft 523 kts 70°
2026-05-06 20:00 37.20840 124.53103 27101 ft 519 kts 71°
2026-05-06 20:00 37.21929 124.57335 26339 ft 500 kts 71°
2026-05-06 20:00 37.22959 124.61458 25174 ft 491 kts 72°
2026-05-06 20:01 37.23961 124.65534 23948 ft 485 kts 72°
2026-05-06 20:01 37.24942 124.69557 22609 ft 480 kts 73°
2026-05-06 20:01 37.25907 124.73521 21668 ft 467 kts 73°
2026-05-06 20:01 37.26850 124.77393 21286 ft 461 kts 73°
2026-05-06 20:02 37.27785 124.81237 20810 ft 459 kts 73°
2026-05-06 20:02 37.28714 124.85053 20345 ft 456 kts 73°
2026-05-06 20:02 37.29638 124.88851 19869 ft 454 kts 73°
2026-05-06 20:02 37.30558 124.92634 19411 ft 451 kts 73°
2026-05-06 20:03 37.31470 124.96393 18932 ft 449 kts 73°
2026-05-06 20:03 37.32379 125.00143 18457 ft 448 kts 73°
2026-05-06 20:03 37.33283 125.03877 17929 ft 446 kts 73°
2026-05-06 20:03 37.34180 125.07590 17417 ft 443 kts 73°
2026-05-06 20:04 37.35070 125.11280 16926 ft 439 kts 73°
2026-05-06 20:04 37.35952 125.14939 16440 ft 435 kts 73°
2026-05-06 20:04 37.36823 125.18563 15981 ft 431 kts 74°
2026-05-06 20:04 37.37685 125.22155 15514 ft 427 kts 74°
2026-05-06 20:05 37.38539 125.25717 15046 ft 423 kts 74°
2026-05-06 20:05 37.39373 125.29200 14586 ft 420 kts 74°
2026-05-06 20:05 37.40209 125.32696 14130 ft 416 kts 74°
2026-05-06 20:05 37.41036 125.36162 13655 ft 412 kts 74°
2026-05-06 20:06 37.41854 125.39594 13139 ft 408 kts 74°
2026-05-06 20:06 37.42661 125.42990 12660 ft 403 kts 74°
2026-05-06 20:06 37.43460 125.46354 12208 ft 398 kts 74°
2026-05-06 20:06 37.44247 125.49670 11752 ft 393 kts 74°
2026-05-06 20:07 37.45023 125.52941 11292 ft 388 kts 73°
2026-05-06 20:07 37.45788 125.56177 10863 ft 383 kts 73°
2026-05-06 20:07 37.46538 125.59347 10666 ft 371 kts 73°
2026-05-06 20:07 37.47245 125.62342 10477 ft 341 kts 73°
2026-05-06 20:08 37.47893 125.65091 10340 ft 318 kts 73°
2026-05-06 20:08 37.48509 125.67708 10221 ft 307 kts 74°
2026-05-06 20:08 37.49104 125.70238 10097 ft 296 kts 73°
2026-05-06 20:08 37.49675 125.72671 9974 ft 285 kts 73°
2026-05-06 20:09 37.50233 125.75048 9755 ft 286 kts 73°
2026-05-06 20:09 37.50806 125.77489 9476 ft 295 kts 73°
2026-05-06 20:09 37.51392 125.79988 9165 ft 299 kts 73°
2026-05-06 20:09 37.51978 125.82494 8845 ft 297 kts 73°
2026-05-06 20:10 37.52557 125.84969 8531 ft 292 kts 73°
2026-05-06 20:10 37.53125 125.87401 8238 ft 287 kts 73°
2026-05-06 20:10 37.53684 125.89794 7951 ft 282 kts 73°
2026-05-06 20:10 37.54232 125.92149 7659 ft 278 kts 74°
2026-05-06 20:11 37.54777 125.94489 7382 ft 278 kts 74°
2026-05-06 20:11 37.55317 125.96810 7090 ft 273 kts 74°
2026-05-06 20:11 37.55846 125.99083 6804 ft 268 kts 74°
2026-05-06 20:11 37.56363 126.01312 6535 ft 262 kts 74°
2026-05-06 20:12 37.56867 126.03486 6294 ft 254 kts 74°
2026-05-06 20:12 37.57355 126.05588 6025 ft 248 kts 74°
2026-05-06 20:12 37.57833 126.07651 5743 ft 242 kts 74°
2026-05-06 20:12 37.58298 126.09660 5476 ft 236 kts 75°
2026-05-06 20:13 37.58750 126.11616 5230 ft 229 kts 75°
2026-05-06 20:13 37.59187 126.13507 4982 ft 221 kts 75°
2026-05-06 20:13 37.59613 126.15354 4770 ft 220 kts 75°
2026-05-06 20:13 37.60042 126.17213 4548 ft 221 kts 76°
2026-05-06 20:14 37.60470 126.19070 4301 ft 220 kts 76°
2026-05-06 20:14 37.60895 126.20916 4052 ft 219 kts 76°
2026-05-06 20:14 37.61318 126.22750 3834 ft 216 kts 76°
2026-05-06 20:14 37.61733 126.24557 3596 ft 212 kts 77°
2026-05-06 20:15 37.62137 126.26324 3430 ft 209 kts 77°
2026-05-06 20:15 37.62536 126.28065 3312 ft 203 kts 78°
2026-05-06 20:15 37.62682 126.29781 3184 ft 193 kts 110°
2026-05-06 20:15 37.62062 126.31107 3084 ft 164 kts 147°
2026-05-06 20:16 37.61244 126.32040 3069 ft 155 kts 146°
2026-05-06 20:16 37.60470 126.32934 2987 ft 151 kts 147°
2026-05-06 20:16 37.59693 126.33805 2797 ft 150 kts 150°
2026-05-06 20:16 37.58889 126.34602 2578 ft 144 kts 153°
2026-05-06 20:17 37.58093 126.35340 2393 ft 140 kts 154°
2026-05-06 20:17 37.57294 126.36061 2226 ft 143 kts 154°
2026-05-06 20:17 37.56483 126.36788 2046 ft 142 kts 154°
2026-05-06 20:17 37.55689 126.37501 1846 ft 138 kts 154°
2026-05-06 20:18 37.54907 126.38199 1660 ft 138 kts 154°
2026-05-06 20:18 37.54123 126.38899 1479 ft 139 kts 153°
2026-05-06 20:18 37.53599 126.39368 1340 ft 140 kts 152°
2026-05-06 20:18 37.52807 126.40076 1155 ft 139 kts 151°
2026-05-06 20:19 37.52012 126.40785 965 ft 141 kts 149°
2026-05-06 20:19 37.51213 126.41501 760 ft 141 kts 146°
2026-05-06 20:19 37.50411 126.42217 558 ft 141 kts 146°
2026-05-06 20:19 37.49602 126.42942 379 ft 144 kts 144°
2026-05-06 20:20 37.48769 126.43692 176 ft 150 kts 147°
2026-05-06 20:20 37.47904 126.44451 39 ft 147 kts 144°
2026-05-06 20:20 37.47177 126.45100 38 ft 103 kts 144°
2026-05-06 20:20 37.46662 126.45551 37 ft 67 kts 146°
2026-05-06 20:21 37.46422 126.45833 39 ft 28 kts 127°
2026-05-06 20:21 37.46324 126.46024 37 ft 6 kts 114°
2026-05-06 20:21 37.46319 126.46042 37 ft 1 kts 111°
2026-05-06 20:21 37.46317 126.46048 37 ft 0 kts 111°